FW6947 Weather Reports


Display with metric or nautical units.
time (UTC)temp
F
wind
direction
speed
MPH
gust
MPH
rain 1hr
in
rain 24hr
in
rain mn
in
humidity
%
barometer
mb
20260505023056 39 360 4.0 12.0 0.00 0.00 0.00 75 1016.3
20260505021547 40 180 6.0 19.0 0.00 0.00 0.00 72 1016.2
20260505020044 41 151 7.0 20.0 0.00 0.00 0.00 68 1015.9
20260505014543 42 360 8.0 22.0 0.00 0.00 0.00 66 1016.0
20260505013045 42 360 7.0 19.0 0.00 0.00 0.00 66 1015.6
20260505011548 42 221 11.0 22.0 0.00 0.00 0.00 64 1015.7
20260505010048 43 360 12.0 28.0 0.00 0.00 0.00 63 1015.6
20260505004552 43 360 9.0 21.0 0.00 0.00 0.00 64 1015.8
20260505003047 43 360 13.0 25.0 0.00 0.00 0.00 64 1015.7
20260505001551 43 180 9.0 18.0 0.00 0.00 0.00 68 1016.3
20260505000106 43 211 8.0 17.0 0.00 0.00 0.00 70 1016.5
20260504234546 43 164 11.0 22.0 0.00 0.00 0.00 72 1016.6
20260504233044 45 360 9.0 20.0 0.00 0.00 0.00 69 1016.6
20260504231542 46 239 6.0 12.0 0.00 0.00 0.00 64 1016.6
20260504224549 48 360 4.0 11.0 0.00 0.00 0.00 62 1016.5
20260504223045 48 360 7.0 14.0 0.00 0.00 0.00 62 1016.5
20260504221559 48 178 5.0 11.0 0.00 0.00 0.00 63 1016.5
20260504220048 48 360 7.0 15.0 0.00 0.00 0.00 64 1016.7
20260504214550 46 360 5.0 18.0 0.00 0.00 0.00 71 1016.8
20260504213045 44 360 7.0 18.0 0.00 0.00 0.00 73 1017.0
20260504211547 44 151 8.0 20.0 0.00 0.00 0.00 73 1017.4
20260504210053 49 360 9.0 18.0 0.00 0.00 0.00 58 1017.2
20260504204541 50 232 2.0 15.0 0.00 0.00 0.00 58 1017.3
20260504203059 51 151 1.0 7.0 0.00 0.00 0.00 56 1017.3
20260504201544 51 0 2.0 8.0 0.00 0.00 0.00 60 1017.2
20260504200040 48 264 4.0 16.0 0.00 0.00 0.00 63 1017.3
20260504194542 47 163 1.0 6.0 0.00 0.00 0.00 61 1017.2
20260504193047 47 313 1.0 10.0 0.00 0.00 0.00 63 1017.3
20260504191546 47 0 2.0 10.0 0.00 0.00 0.00 66 1017.6
20260504190044 47 0 1.0 14.0 0.00 0.00 0.00 68 1017.7
20260504184540 45 0 1.0 11.0 0.00 0.00 0.00 72 1017.7
20260504183040 44 360 2.0 10.0 0.00 0.00 0.00 76 1017.9
20260504181554 45 273 2.0 13.0 0.00 0.00 0.00 66 1018.1
20260504180049 47 360 5.0 16.0 0.00 0.00 0.00 60 1018.1
20260504174544 47 219 6.0 18.0 0.00 0.00 0.00 59 1018.3
20260504173049 48 360 4.0 20.0 0.00 0.00 0.00 56 1018.2
20260504171549 49 360 8.0 17.0 0.00 0.00 0.00 56 1018.4
20260504081556 40 360 7.0 14.0 0.00 0.00 0.00 66 1019.4
20260504044546 40 0 0.0 4.0 0.00 0.00 0.00 48 1020.6
20260504043051 40 0 0.0 4.0 0.00 0.00 0.00 50 1020.8
20260504041549 40 0 0.0 2.0 0.00 0.00 0.00 49 1020.8
20260504040051 40 0 0.0 3.0 0.00 0.00 0.00 48 1021.0
20260504034543 39 156 0.0 3.0 0.00 0.00 0.00 51 1021.0
20260504033041 39 191 0.0 4.0 0.00 0.00 0.00 52 1021.1
20260504031548 39 360 0.0 2.0 0.00 0.00 0.00 50 1021.0
20260504030048 40 0 0.0 0.0 0.00 0.00 0.00 46 1021.1
20260504024601 41 0 0.0 1.0 0.00 0.00 0.00 44 1020.8